| time (UTC) | temp F | wind direction | speed MPH | gust MPH | rain 1hr in | rain 24hr in | rain mn in | humidity % | barometer mb |
| 20260503220046 | 62 | 260 | 8.0 | 13.0 | 0.00 | 0.00 | 0.00 | 33 | 1011.2 |
| 20260503215543 | 61 | 282 | 2.0 | 11.0 | 0.00 | 0.00 | 0.00 | 36 | 1011.2 |
| 20260503215040 | 59 | 286 | 6.0 | 10.0 | 0.00 | 0.00 | 0.00 | 37 | 1011.1 |
| 20260503214538 | 59 | 253 | 11.0 | 20.0 | 0.00 | 0.00 | 0.00 | 36 | 1011.3 |
| 20260503214034 | 59 | 237 | 9.0 | 26.0 | 0.00 | 0.00 | 0.00 | 35 | 1011.3 |
| 20260503213533 | 59 | 252 | 15.0 | 24.0 | 0.00 | 0.00 | 0.00 | 35 | 1011.2 |
| 20260503213029 | 59 | 254 | 9.0 | 17.0 | 0.00 | 0.00 | 0.00 | 36 | 1011.3 |
| 20260503212527 | 59 | 234 | 7.0 | 24.0 | 0.00 | 0.00 | 0.00 | 34 | 1011.4 |
| 20260503212024 | 60 | 258 | 17.0 | 22.0 | 0.00 | 0.00 | 0.00 | 34 | 1011.3 |
| 20260503211521 | 60 | 250 | 6.0 | 21.0 | 0.00 | 0.00 | 0.00 | 35 | 1011.4 |
| 20260503211017 | 60 | 250 | 7.0 | 27.0 | 0.00 | 0.00 | 0.00 | 36 | 1011.4 |
| 20260503210514 | 60 | 222 | 5.0 | 21.0 | 0.00 | 0.00 | 0.00 | 35 | 1011.3 |
| 20260503210009 | 60 | 255 | 5.0 | 19.0 | 0.00 | 0.00 | 0.00 | 35 | 1011.5 |
| 20260503205506 | 60 | 240 | 10.0 | 20.0 | 0.00 | 0.00 | 0.00 | 34 | 1011.4 |
| 20260503205002 | 60 | 257 | 4.0 | 25.0 | 0.00 | 0.00 | 0.00 | 35 | 1011.5 |
| 20260503204500 | 60 | 277 | 6.0 | 16.0 | 0.00 | 0.00 | 0.00 | 34 | 1011.1 |
| 20260503203956 | 61 | 234 | 4.0 | 14.0 | 0.00 | 0.00 | 0.00 | 34 | 1011.1 |
| 20260503203454 | 61 | 254 | 10.0 | 23.0 | 0.00 | 0.00 | 0.00 | 33 | 1011.2 |
| 20260503202950 | 62 | 277 | 5.0 | 19.0 | 0.00 | 0.00 | 0.00 | 32 | 1011.2 |
| 20260503202448 | 62 | 208 | 3.0 | 17.0 | 0.00 | 0.00 | 0.00 | 33 | 1011.6 |
| 20260503201946 | 60 | 274 | 5.0 | 20.0 | 0.00 | 0.00 | 0.00 | 34 | 1011.6 |
| 20260503201444 | 60 | 264 | 2.0 | 16.0 | 0.00 | 0.00 | 0.00 | 34 | 1011.5 |
| 20260503200941 | 61 | 198 | 4.0 | 16.0 | 0.00 | 0.00 | 0.00 | 33 | 1011.8 |
| 20260503200437 | 61 | 197 | 5.0 | 16.0 | 0.00 | 0.00 | 0.00 | 32 | 1011.8 |
| 20260503195934 | 60 | 251 | 7.0 | 27.0 | 0.00 | 0.00 | 0.00 | 34 | 1011.9 |
| 20260503195432 | 61 | 141 | 4.0 | 14.0 | 0.00 | 0.00 | 0.00 | 34 | 1011.9 |
| 20260503194928 | 60 | 243 | 6.0 | 20.0 | 0.00 | 0.00 | 0.00 | 33 | 1011.9 |
| 20260503194425 | 60 | 253 | 10.0 | 21.0 | 0.00 | 0.00 | 0.00 | 33 | 1012.1 |
| 20260503193920 | 60 | 295 | 3.0 | 14.0 | 0.00 | 0.00 | 0.00 | 36 | 1012.4 |
| 20260503193416 | 61 | 254 | 13.0 | 25.0 | 0.00 | 0.00 | 0.00 | 35 | 1012.1 |
| 20260503192912 | 61 | 242 | 13.0 | 14.0 | 0.00 | 0.00 | 0.00 | 36 | 1012.2 |
| 20260503192408 | 60 | 272 | 4.0 | 16.0 | 0.00 | 0.00 | 0.00 | 37 | 1012.5 |
| 20260503191904 | 60 | 249 | 3.0 | 11.0 | 0.00 | 0.00 | 0.00 | 37 | 1012.4 |
| 20260503191401 | 60 | 251 | 8.0 | 14.0 | 0.00 | 0.00 | 0.00 | 35 | 1012.5 |
| 20260503190858 | 62 | 254 | 3.0 | 16.0 | 0.00 | 0.00 | 0.00 | 34 | 1012.5 |
| 20260503190355 | 60 | 297 | 5.0 | 19.0 | 0.00 | 0.00 | 0.00 | 35 | 1012.7 |
| 20260503185852 | 61 | 252 | 5.0 | 19.0 | 0.00 | 0.00 | 0.00 | 35 | 1012.9 |
| 20260503185348 | 60 | 224 | 3.0 | 30.0 | 0.00 | 0.00 | 0.00 | 35 | 1013.0 |
| 20260503184848 | 60 | 190 | 4.0 | 15.0 | 0.00 | 0.00 | 0.00 | 35 | 1012.7 |
| 20260503184344 | 60 | 260 | 11.0 | 22.0 | 0.00 | 0.00 | 0.00 | 34 | 1012.9 |
| 20260503183840 | 59 | 249 | 11.0 | 20.0 | 0.00 | 0.00 | 0.00 | 34 | 1013.1 |
| 20260503183338 | 60 | 273 | 8.0 | 28.0 | 0.00 | 0.00 | 0.00 | 34 | 1013.0 |
| 20260503182835 | 60 | 243 | 7.0 | 14.0 | 0.00 | 0.00 | 0.00 | 37 | 1013.0 |
| 20260503182334 | 59 | 250 | 15.0 | 20.0 | 0.00 | 0.00 | 0.00 | 36 | 1013.0 |
| 20260503181831 | 61 | 228 | 11.0 | 19.0 | 0.00 | 0.00 | 0.00 | 34 | 1013.1 |
| 20260503181328 | 60 | 186 | 6.0 | 24.0 | 0.00 | 0.00 | 0.00 | 37 | 1013.0 |
| 20260503180824 | 61 | 232 | 13.0 | 18.0 | 0.00 | 0.00 | 0.00 | 36 | 1013.0 |
| 20260503180322 | 60 | 248 | 4.0 | 18.0 | 0.00 | 0.00 | 0.00 | 38 | 1013.4 |
| 20260503175818 | 60 | 260 | 7.0 | 21.0 | 0.00 | 0.00 | 0.00 | 37 | 1013.3 |
| 20260503175316 | 60 | 255 | 13.0 | 21.0 | 0.00 | 0.00 | 0.00 | 36 | 1013.5 |
| 20260503174812 | 61 | 268 | 6.0 | 24.0 | 0.00 | 0.00 | 0.00 | 37 | 1013.7 |
| 20260503174310 | 59 | 271 | 6.0 | 25.0 | 0.00 | 0.00 | 0.00 | 40 | 1013.4 |
| 20260503173805 | 60 | 297 | 4.0 | 11.0 | 0.00 | 0.00 | 0.00 | 40 | 1013.5 |
| 20260503173301 | 59 | 156 | 4.0 | 20.0 | 0.00 | 0.00 | 0.00 | 37 | 1013.6 |
| 20260503172758 | 59 | 225 | 5.0 | 18.0 | 0.00 | 0.00 | 0.00 | 40 | 1013.7 |
| 20260503172256 | 60 | 253 | 10.0 | 11.0 | 0.00 | 0.00 | 0.00 | 41 | 1013.7 |
| 20260503171752 | 59 | 230 | 7.0 | 21.0 | 0.00 | 0.00 | 0.00 | 37 | 1013.8 |
| 20260503171249 | 59 | 237 | 12.0 | 17.0 | 0.00 | 0.00 | 0.00 | 39 | 1013.8 |
| 20260503170746 | 59 | 168 | 4.0 | 22.0 | 0.00 | 0.00 | 0.00 | 41 | 1013.9 |
| 20260503170243 | 59 | 237 | 5.0 | 21.0 | 0.00 | 0.00 | 0.00 | 40 | 1014.0 |
| 20260503160205 | 57 | 239 | 5.0 | 19.0 | 0.00 | 0.00 | 0.00 | 40 | 1014.5 |
| 20260503150635 | 54 | 237 | 3.0 | 13.0 | 0.00 | 0.00 | 0.00 | 42 | 1015.0 |
| 20260503150131 | 54 | 267 | 7.0 | 17.0 | 0.00 | 0.00 | 0.00 | 40 | 1015.1 |
| 20260503131025 | 49 | 184 | 3.0 | 8.0 | 0.00 | 0.00 | 0.00 | 47 | 1015.7 |
| 20260503130522 | 48 | 144 | 3.0 | 13.0 | 0.00 | 0.00 | 0.00 | 49 | 1015.4 |
| 20260503110412 | 37 | 234 | 2.0 | 4.0 | 0.00 | 0.00 | 0.00 | 73 | 1015.1 |
| 20260503090309 | 37 | 239 | 2.0 | 4.0 | 0.00 | 0.00 | 0.00 | 76 | 1014.7 |
| 20260503081242 | 37 | 173 | 0.0 | 5.0 | 0.00 | 0.00 | 0.00 | 76 | 1015.2 |
| 20260503080737 | 37 | 213 | 2.0 | 5.0 | 0.00 | 0.00 | 0.00 | 76 | 1015.0 |
| 20260503080235 | 37 | 311 | 0.0 | 5.0 | 0.00 | 0.00 | 0.00 | 76 | 1014.8 |
| 20260503072712 | 37 | 253 | 2.0 | 6.0 | 0.00 | 0.00 | 0.00 | 78 | 1014.8 |
| 20260503072208 | 37 | 240 | 0.0 | 4.0 | 0.00 | 0.00 | 0.00 | 79 | 1014.9 |
| 20260503071705 | 37 | 190 | 1.0 | 4.0 | 0.00 | 0.00 | 0.00 | 78 | 1014.9 |
| 20260503071202 | 37 | 215 | 0.0 | 4.0 | 0.00 | 0.00 | 0.00 | 79 | 1014.9 |
| 20260503070659 | 37 | 242 | 1.0 | 4.0 | 0.00 | 0.00 | 0.00 | 79 | 1014.8 |
| 20260503070157 | 37 | 228 | 0.0 | 2.0 | 0.00 | 0.00 | 0.00 | 80 | 1015.0 |
| 20260503060121 | 38 | 243 | 4.0 | 6.0 | 0.00 | 0.00 | 0.00 | 78 | 1014.9 |
| 20260503055113 | 38 | 180 | 0.0 | 3.0 | 0.00 | 0.00 | 0.00 | 78 | 1015.3 |
| 20260503054609 | 38 | 209 | 1.0 | 4.0 | 0.00 | 0.00 | 0.00 | 78 | 1015.2 |
| 20260503054106 | 38 | 173 | 0.0 | 3.0 | 0.00 | 0.00 | 0.00 | 78 | 1015.1 |
| 20260503053604 | 38 | 205 | 2.0 | 5.0 | 0.00 | 0.00 | 0.00 | 78 | 1015.2 |
| 20260503053102 | 38 | 159 | 1.0 | 3.0 | 0.00 | 0.00 | 0.00 | 79 | 1015.4 |
| 20260503052558 | 38 | 211 | 1.0 | 2.0 | 0.00 | 0.00 | 0.00 | 79 | 1015.3 |
| 20260503052055 | 38 | 222 | 0.0 | 2.0 | 0.00 | 0.00 | 0.00 | 79 | 1015.2 |
| 20260503051550 | 38 | 166 | 0.0 | 2.0 | 0.00 | 0.00 | 0.00 | 79 | 1015.2 |
| 20260503051048 | 38 | 224 | 0.0 | 2.0 | 0.00 | 0.00 | 0.00 | 79 | 1015.2 |
| 20260503050543 | 38 | 246 | 2.0 | 3.0 | 0.00 | 0.00 | 0.00 | 79 | 1015.3 |
| 20260503050041 | 38 | 122 | 0.0 | 2.0 | 0.00 | 0.00 | 0.00 | 79 | 1015.2 |
| 20260503045538 | 38 | 232 | 0.0 | 3.0 | 0.00 | 0.00 | 0.00 | 78 | 1015.5 |
| 20260503045035 | 38 | 168 | 1.0 | 2.0 | 0.00 | 0.00 | 0.00 | 78 | 1015.4 |
| 20260503044532 | 39 | 228 | 0.0 | 2.0 | 0.00 | 0.00 | 0.00 | 78 | 1015.5 |
| 20260503044030 | 39 | 237 | 0.0 | 2.0 | 0.00 | 0.00 | 0.00 | 78 | 1015.4 |
| 20260503043525 | 39 | 188 | 0.0 | 2.0 | 0.00 | 0.00 | 0.00 | 78 | 1015.3 |
| 20260503043022 | 39 | 150 | 0.0 | 3.0 | 0.00 | 0.00 | 0.00 | 77 | 1015.4 |
| 20260503042519 | 39 | 289 | 1.0 | 2.0 | 0.00 | 0.00 | 0.00 | 77 | 1015.6 |
| 20260503042015 | 39 | 302 | 0.0 | 2.0 | 0.00 | 0.00 | 0.00 | 76 | 1015.4 |
| 20260503041512 | 40 | 229 | 0.0 | 3.0 | 0.00 | 0.00 | 0.00 | 75 | 1015.4 |
| 20260503041010 | 40 | 157 | 0.0 | 2.0 | 0.00 | 0.00 | 0.00 | 75 | 1015.6 |
| 20260503040507 | 40 | 131 | 0.0 | 4.0 | 0.00 | 0.00 | 0.00 | 74 | 1015.5 |
| 20260503040004 | 41 | 212 | 0.0 | 4.0 | 0.00 | 0.22 | 0.22 | 74 | 1015.5 |
| 20260503035501 | 41 | 89 | 0.0 | 3.0 | 0.00 | 0.22 | 0.22 | 73 | 1015.5 |
| 20260503034959 | 41 | 236 | 1.0 | 3.0 | 0.00 | 0.22 | 0.22 | 73 | 1015.4 |
| 20260503034456 | 41 | 240 | 1.0 | 5.0 | 0.00 | 0.22 | 0.22 | 73 | 1015.6 |
| 20260503033953 | 41 | 165 | 1.0 | 2.0 | 0.00 | 0.22 | 0.22 | 73 | 1015.6 |
| 20260503033450 | 41 | 185 | 1.0 | 6.0 | 0.00 | 0.22 | 0.22 | 73 | 1015.4 |
| 20260503032948 | 41 | 227 | 2.0 | 4.0 | 0.00 | 0.22 | 0.22 | 72 | 1015.7 |
| 20260503032446 | 41 | 247 | 2.0 | 4.0 | 0.00 | 0.22 | 0.22 | 72 | 1015.6 |
| 20260503031943 | 41 | 162 | 0.0 | 4.0 | 0.00 | 0.22 | 0.22 | 72 | 1015.7 |
| 20260503031441 | 41 | 189 | 0.0 | 3.0 | 0.00 | 0.22 | 0.22 | 71 | 1015.6 |
| 20260503030937 | 41 | 258 | 1.0 | 5.0 | 0.00 | 0.22 | 0.22 | 71 | 1015.6 |
| 20260503030434 | 41 | 137 | 1.0 | 4.0 | 0.00 | 0.22 | 0.22 | 71 | 1015.8 |
| 20260503025931 | 41 | 243 | 1.0 | 5.0 | 0.00 | 0.22 | 0.22 | 71 | 1015.7 |
| 20260503025428 | 41 | 127 | 1.0 | 4.0 | 0.00 | 0.22 | 0.22 | 70 | 1015.6 |
| 20260503024926 | 41 | 257 | 4.0 | 4.0 | 0.00 | 0.22 | 0.22 | 71 | 1015.8 |
| 20260503024422 | 41 | 116 | 0.0 | 2.0 | 0.00 | 0.22 | 0.22 | 71 | 1015.8 |
| 20260503023919 | 41 | 120 | 0.0 | 2.0 | 0.00 | 0.22 | 0.22 | 70 | 1015.8 |
| 20260503023416 | 41 | 112 | 1.0 | 3.0 | 0.00 | 0.22 | 0.22 | 71 | 1015.6 |
| 20260503022913 | 41 | 199 | 0.0 | 3.0 | 0.00 | 0.22 | 0.22 | 70 | 1016.0 |
| 20260503022408 | 41 | 153 | 1.0 | 3.0 | 0.00 | 0.22 | 0.22 | 71 | 1016.0 |
| 20260503021904 | 41 | 211 | 1.0 | 2.0 | 0.00 | 0.22 | 0.22 | 70 | 1015.9 |
| 20260503021400 | 41 | 106 | 1.0 | 2.0 | 0.00 | 0.22 | 0.22 | 70 | 1015.8 |
| 20260503020857 | 41 | 157 | 1.0 | 2.0 | 0.00 | 0.22 | 0.22 | 71 | 1015.9 |
| 20260503020355 | 41 | 112 | 0.0 | 2.0 | 0.00 | 0.22 | 0.22 | 72 | 1016.0 |
| 20260503015851 | 41 | 136 | 1.0 | 2.0 | 0.00 | 0.22 | 0.22 | 73 | 1015.9 |
| 20260503015348 | 41 | 135 | 0.0 | 2.0 | 0.00 | 0.22 | 0.22 | 73 | 1016.1 |
| 20260503014844 | 41 | 135 | 0.0 | 2.0 | 0.00 | 0.22 | 0.22 | 73 | 1016.1 |
| 20260503014342 | 41 | 135 | 0.0 | 3.0 | 0.00 | 0.22 | 0.22 | 72 | 1016.0 |
| 20260503013839 | 41 | 144 | 0.0 | 1.0 | 0.00 | 0.22 | 0.22 | 72 | 1015.7 |
| 20260503013336 | 41 | 135 | 0.0 | 1.0 | 0.00 | 0.22 | 0.22 | 73 | 1015.5 |
| 20260503012833 | 41 | 120 | 0.0 | 2.0 | 0.00 | 0.22 | 0.22 | 73 | 1015.9 |
| 20260503012331 | 41 | 135 | 0.0 | 1.0 | 0.00 | 0.22 | 0.22 | 73 | 1015.9 |
| 20260503011828 | 41 | 125 | 1.0 | 2.0 | 0.00 | 0.22 | 0.22 | 71 | 1015.9 |
| 20260503011325 | 41 | 116 | 0.0 | 2.0 | 0.00 | 0.22 | 0.22 | 70 | 1015.8 |
| 20260503010821 | 41 | 89 | 0.0 | 2.0 | 0.00 | 0.22 | 0.22 | 71 | 1015.9 |
| 20260503010319 | 41 | 128 | 0.0 | 3.0 | 0.00 | 0.22 | 0.22 | 70 | 1015.9 |
| 20260503005815 | 41 | 115 | 2.0 | 3.0 | 0.00 | 0.22 | 0.22 | 70 | 1015.8 |
| 20260503005313 | 41 | 75 | 1.0 | 2.0 | 0.00 | 0.22 | 0.22 | 69 | 1015.9 |
| 20260503004809 | 41 | 117 | 2.0 | 3.0 | 0.00 | 0.22 | 0.22 | 67 | 1015.8 |
| 20260503004307 | 41 | 119 | 0.0 | 2.0 | 0.00 | 0.22 | 0.22 | 64 | 1015.7 |
| 20260503003804 | 41 | 99 | 0.0 | 2.0 | 0.00 | 0.22 | 0.22 | 62 | 1015.6 |
| 20260503003300 | 42 | 119 | 0.0 | 1.0 | 0.00 | 0.22 | 0.22 | 62 | 1015.7 |
| 20260503002757 | 42 | 89 | 0.0 | 2.0 | 0.00 | 0.22 | 0.22 | 61 | 1015.7 |
| 20260503002254 | 42 | 79 | 0.0 | 1.0 | 0.00 | 0.22 | 0.22 | 58 | 1015.7 |
| 20260503001750 | 42 | 55 | 0.0 | 2.0 | 0.00 | 0.22 | 0.22 | 58 | 1015.7 |
| 20260503001247 | 42 | 91 | 1.0 | 1.0 | 0.00 | 0.22 | 0.22 | 58 | 1015.5 |
| 20260503000745 | 42 | 66 | 0.0 | 2.0 | 0.00 | 0.22 | 0.22 | 57 | 1015.6 |
| 20260503000242 | 43 | 14 | 0.0 | 4.0 | 0.00 | 0.22 | 0.22 | 62 | 1015.7 |
| 20260502235738 | 43 | 63 | 1.0 | 1.0 | 0.00 | 0.22 | 0.22 | 57 | 1015.6 |
| 20260502235237 | 43 | 32 | 0.0 | 2.0 | 0.00 | 0.22 | 0.22 | 58 | 1015.4 |
| 20260502234732 | 43 | 45 | 2.0 | 3.0 | 0.00 | 0.22 | 0.22 | 55 | 1015.5 |
| 20260502234230 | 43 | 39 | 2.0 | 3.0 | 0.00 | 0.22 | 0.22 | 59 | 1015.7 |
| 20260502233726 | 43 | 233 | 3.0 | 4.0 | 0.00 | 0.22 | 0.22 | 55 | 1015.6 |
| 20260502233223 | 44 | 130 | 0.0 | 2.0 | 0.00 | 0.22 | 0.22 | 58 | 1015.6 |
| 20260502232718 | 44 | 49 | 6.0 | 7.0 | 0.00 | 0.22 | 0.22 | 55 | 1015.6 |
| 20260502232216 | 44 | 61 | 0.0 | 3.0 | 0.00 | 0.22 | 0.22 | 55 | 1015.5 |
| 20260502231712 | 44 | 60 | 3.0 | 3.0 | 0.00 | 0.22 | 0.22 | 57 | 1015.5 |
| 20260502231210 | 44 | 66 | 4.0 | 4.0 | 0.00 | 0.22 | 0.22 | 56 | 1015.6 |
| 20260502230709 | 44 | 62 | 2.0 | 3.0 | 0.00 | 0.22 | 0.22 | 58 | 1015.7 |
| 20260502230207 | 44 | 17 | 3.0 | 7.0 | 0.00 | 0.22 | 0.22 | 54 | 1015.6 |
| 20260502225702 | 44 | 58 | 4.0 | 6.0 | 0.00 | 0.22 | 0.22 | 56 | 1015.6 |
| 20260502225200 | 44 | 52 | 3.0 | 5.0 | 0.00 | 0.22 | 0.22 | 55 | 1015.6 |
| 20260502224656 | 44 | 49 | 3.0 | 5.0 | 0.00 | 0.22 | 0.22 | 56 | 1015.5 |
| 20260502224153 | 44 | 36 | 3.0 | 6.0 | 0.00 | 0.22 | 0.22 | 56 | 1015.6 |
| 20260502223650 | 44 | 18 | 4.0 | 7.0 | 0.00 | 0.22 | 0.22 | 55 | 1015.7 |
| 20260502223148 | 44 | 268 | 1.0 | 7.0 | 0.00 | 0.22 | 0.22 | 54 | 1015.6 |
| 20260502222640 | 44 | 260 | 3.0 | 9.0 | 0.00 | 0.22 | 0.22 | 54 | 1015.6 |
| 20260502222136 | 44 | 44 | 3.0 | 5.0 | 0.00 | 0.22 | 0.22 | 56 | 1015.5 |
| 20260502221632 | 45 | 57 | 5.0 | 5.0 | 0.00 | 0.22 | 0.22 | 57 | 1015.5 |
| 20260502221129 | 44 | 358 | 2.0 | 6.0 | 0.00 | 0.22 | 0.22 | 56 | 1015.7 |
| 20260502220625 | 45 | 16 | 3.0 | 5.0 | 0.00 | 0.22 | 0.22 | 55 | 1015.9 |